Location: Arrington
(35.8681°N, 86.7092°W)
Time: 22:25:39
(UTC+00:00)

STARLINK 1035 - Pass Details

Date: 23 November 2019
Orbit: 348 x 351 km, 53.0° (Epoch: 05 December)

Event Time Altitude Azimuth Distance (km) Brightness Sun altitude
Exits shadow 11:31:33 15° 244° (WSW) 1,069 4.7 -12.1°
Maximum altitude 11:33:48 51° 319° (NW) 446 2.8 -11.6°
Drops below altitude 10° 11:36:39 10° 37° (NE) 1,310 5.8 -11.1°
Sets 11:38:42 0° 42° (NE) 2,156 7.0 -10.7°
